Date_Time,Julian_Date,Latitude,Longitude,Instrument_Depth,U,V,Speed,Direction
(yyyy-mm-dd hh:mn:ss UTC),(JD),(+ deg. North),(+ deg. East),(m),(cm/s),(cm/s),(cm/s),(deg True)
1981-09-03 21:00:00 UTC,2444851.375000,29.6417,-93.6667,0076,4.21,5.59,7.0000,37.0000
1981-09-03 21:30:00 UTC,2444851.395833,29.6417,-93.6667,0076,4.79,3.61,6.0000,53.0000
1981-09-03 22:00:00 UTC,2444851.416667,29.6417,-93.6667,0076,4.85,1.21,5.0000,76.0000
1981-09-03 22:30:00 UTC,2444851.437500,29.6417,-93.6667,0076,3.90,-0.90,4.0000,103.0000
1981-09-03 23:00:00 UTC,2444851.458333,29.6417,-93.6667,0076,1.46,-1.36,2.0000,133.0000
1981-09-03 23:30:00 UTC,2444851.479167,29.6417,-93.6667,0076,1.00,-0.07,1.0000,94.0000
1981-09-04 00:00:00 UTC,2444851.500000,29.6417,-93.6667,0076,3.78,1.30,4.0000,71.0000
1981-09-04 00:30:00 UTC,2444851.520833,29.6417,-93.6667,0076,6.79,1.69,7.0000,76.0000
1981-09-04 01:00:00 UTC,2444851.541667,29.6417,-93.6667,0076,8.00,0.28,8.0000,88.0000
1981-09-04 01:30:00 UTC,2444851.562500,29.6417,-93.6667,0076,8.89,-1.41,9.0000,99.0000
1981-09-04 02:00:00 UTC,2444851.583333,29.6417,-93.6667,0076,9.51,-3.09,10.0000,108.0000
1981-09-04 02:30:00 UTC,2444851.604167,29.6417,-93.6667,0076,8.91,-4.54,10.0000,117.0000
1981-09-04 03:00:00 UTC,2444851.625000,29.6417,-93.6667,0076,8.09,-5.88,10.0000,126.0000
1981-09-04 03:30:00 UTC,2444851.645833,29.6417,-93.6667,0076,7.78,-7.78,11.0000,135.0000
1981-09-04 04:00:00 UTC,2444851.666667,29.6417,-93.6667,0076,6.77,-8.67,11.0000,142.0000
1981-09-04 04:30:00 UTC,2444851.687500,29.6417,-93.6667,0076,6.15,-9.12,11.0000,146.0000
1981-09-04 05:00:00 UTC,2444851.708333,29.6417,-93.6667,0076,5.45,-8.39,10.0000,147.0000
1981-09-04 05:30:00 UTC,2444851.729167,29.6417,-93.6667,0076,6.00,-10.39,12.0000,150.0000
1981-09-04 06:00:00 UTC,2444851.750000,29.6417,-93.6667,0076,6.10,-11.48,13.0000,152.0000
1981-09-04 06:30:00 UTC,2444851.770833,29.6417,-93.6667,0076,5.83,-9.33,11.0000,148.0000
1981-09-04 07:00:00 UTC,2444851.791667,29.6417,-93.6667,0076,5.42,-7.19,9.0000,143.0000
1981-09-04 07:30:00 UTC,2444851.812500,29.6417,-93.6667,0076,4.50,-7.79,9.0000,150.0000
1981-09-04 08:00:00 UTC,2444851.833333,29.6417,-93.6667,0076,2.39,-6.58,7.0000,160.0000
1981-09-04 08:30:00 UTC,2444851.854167,29.6417,-93.6667,0076,1.38,-4.81,5.0000,164.0000
1981-09-04 09:00:00 UTC,2444851.875000,29.6417,-93.6667,0076,1.38,-4.81,5.0000,164.0000
1981-09-04 09:30:00 UTC,2444851.895833,29.6417,-93.6667,0076,-0.42,-5.99,6.0000,184.0000
1981-09-04 10:00:00 UTC,2444851.916667,29.6417,-93.6667,0076,-3.88,-7.00,8.0000,209.0000
1981-09-04 10:30:00 UTC,2444851.937500,29.6417,-93.6667,0076,-5.42,-7.19,9.0000,217.0000
1981-09-04 11:00:00 UTC,2444851.958333,29.6417,-93.6667,0076,-4.24,-6.78,8.0000,212.0000
1981-09-04 11:30:00 UTC,2444851.979167,29.6417,-93.6667,0076,-2.11,-4.53,5.0000,205.0000
1981-09-04 12:00:00 UTC,2444852.000000,29.6417,-93.6667,0076,-0.50,-0.87,1.0000,210.0000
1981-09-04 12:30:00 UTC,2444852.020833,29.6417,-93.6667,0076,-1.68,-1.09,2.0000,237.0000
1981-09-04 13:00:00 UTC,2444852.041667,29.6417,-93.6667,0076,-3.28,-2.29,4.0000,235.0000
1981-09-04 13:30:00 UTC,2444852.062500,29.6417,-93.6667,0076,-5.09,-3.18,6.0000,238.0000
1981-09-04 14:00:00 UTC,2444852.083333,29.6417,-93.6667,0076,-4.29,-2.58,5.0000,239.0000
1981-09-04 14:30:00 UTC,2444852.104167,29.6417,-93.6667,0076,-2.36,-1.85,3.0000,232.0000
1981-09-04 15:00:00 UTC,2444852.125000,29.6417,-93.6667,0076,-0.74,-0.67,1.0000,228.0000
1981-09-04 15:30:00 UTC,2444852.145833,29.6417,-93.6667,0076,-0.00,-0.00,0.0000,222.0000
1981-09-04 16:00:00 UTC,2444852.166667,29.6417,-93.6667,0076,0.42,-0.91,1.0000,155.0000
1981-09-04 16:30:00 UTC,2444852.187500,29.6417,-93.6667,0076,0.33,-0.95,1.0000,161.0000
1981-09-04 17:00:00 UTC,2444852.208333,29.6417,-93.6667,0076,0.00,-0.00,0.0000,144.0000
1981-09-04 17:30:00 UTC,2444852.229167,29.6417,-93.6667,0076,0.79,0.62,1.0000,52.0000
1981-09-04 18:00:00 UTC,2444852.250000,29.6417,-93.6667,0076,3.60,1.75,4.0000,64.0000
1981-09-04 18:30:00 UTC,2444852.270833,29.6417,-93.6667,0076,4.91,0.95,5.0000,79.0000
1981-09-04 19:00:00 UTC,2444852.291667,29.6417,-93.6667,0076,5.00,-0.17,5.0000,92.0000
1981-09-04 19:30:00 UTC,2444852.312500,29.6417,-93.6667,0076,3.91,-0.83,4.0000,102.0000
1981-09-04 20:00:00 UTC,2444852.333333,29.6417,-93.6667,0076,3.73,-1.43,4.0000,111.0000
1981-09-04 20:30:00 UTC,2444852.354167,29.6417,-93.6667,0076,4.41,-2.35,5.0000,118.0000
1981-09-04 21:00:00 UTC,2444852.375000,29.6417,-93.6667,0076,5.09,-3.18,6.0000,122.0000
1981-09-04 21:30:00 UTC,2444852.395833,29.6417,-93.6667,0076,4.91,-3.44,6.0000,125.0000
1981-09-04 22:00:00 UTC,2444852.416667,29.6417,-93.6667,0076,4.79,-3.61,6.0000,127.0000
1981-09-04 22:30:00 UTC,2444852.437500,29.6417,-93.6667,0076,3.66,-3.41,5.0000,133.0000
1981-09-04 23:00:00 UTC,2444852.458333,29.6417,-93.6667,0076,3.35,-3.72,5.0000,138.0000
1981-09-04 23:30:00 UTC,2444852.479167,29.6417,-93.6667,0076,3.66,-3.41,5.0000,133.0000
1981-09-05 00:00:00 UTC,2444852.500000,29.6417,-93.6667,0076,3.28,-2.29,4.0000,125.0000
1981-09-05 00:30:00 UTC,2444852.520833,29.6417,-93.6667,0076,1.99,-0.24,2.0000,97.0000
1981-09-05 01:00:00 UTC,2444852.541667,29.6417,-93.6667,0076,1.97,2.26,3.0000,41.0000
1981-09-05 01:30:00 UTC,2444852.562500,29.6417,-93.6667,0076,1.63,2.52,3.0000,33.0000
1981-09-05 02:00:00 UTC,2444852.583333,29.6417,-93.6667,0076,0.57,0.82,1.0000,35.0000
1981-09-05 02:30:00 UTC,2444852.604167,29.6417,-93.6667,0076,-0.90,-0.44,1.0000,244.0000
1981-09-05 03:00:00 UTC,2444852.625000,29.6417,-93.6667,0076,-1.00,0.07,1.0000,274.0000
1981-09-05 03:30:00 UTC,2444852.645833,29.6417,-93.6667,0076,-0.47,0.88,1.0000,332.0000
1981-09-05 04:00:00 UTC,2444852.666667,29.6417,-93.6667,0076,1.32,2.70,3.0000,26.0000
1981-09-05 04:30:00 UTC,2444852.687500,29.6417,-93.6667,0076,4.33,2.50,5.0000,60.0000
1981-09-05 05:00:00 UTC,2444852.708333,29.6417,-93.6667,0076,6.93,0.97,7.0000,82.0000
1981-09-05 05:30:00 UTC,2444852.729167,29.6417,-93.6667,0076,6.91,-1.10,7.0000,99.0000
1981-09-05 06:00:00 UTC,2444852.750000,29.6417,-93.6667,0076,5.67,-1.95,6.0000,109.0000
1981-09-05 06:30:00 UTC,2444852.770833,29.6417,-93.6667,0076,4.57,-2.03,5.0000,114.0000
1981-09-05 07:00:00 UTC,2444852.791667,29.6417,-93.6667,0076,4.33,-2.50,5.0000,120.0000
1981-09-05 07:30:00 UTC,2444852.812500,29.6417,-93.6667,0076,4.29,-2.58,5.0000,121.0000
1981-09-05 08:00:00 UTC,2444852.833333,29.6417,-93.6667,0076,2.85,-0.93,3.0000,108.0000
1981-09-05 08:30:00 UTC,2444852.854167,29.6417,-93.6667,0076,2.91,0.73,3.0000,76.0000
1981-09-05 09:00:00 UTC,2444852.875000,29.6417,-93.6667,0076,2.52,1.63,3.0000,57.0000
1981-09-05 09:30:00 UTC,2444852.895833,29.6417,-93.6667,0076,2.36,1.85,3.0000,52.0000
1981-09-05 10:00:00 UTC,2444852.916667,29.6417,-93.6667,0076,1.66,1.12,2.0000,56.0000
1981-09-05 10:30:00 UTC,2444852.937500,29.6417,-93.6667,0076,0.90,0.44,1.0000,64.0000
1981-09-05 11:00:00 UTC,2444852.958333,29.6417,-93.6667,0076,0.00,0.00,0.0000,43.0000
1981-09-05 11:30:00 UTC,2444852.979167,29.6417,-93.6667,0076,-0.52,0.86,1.0000,329.0000
1981-09-05 12:00:00 UTC,2444853.000000,29.6417,-93.6667,0076,-0.73,2.91,3.0000,346.0000
1981-09-05 12:30:00 UTC,2444853.020833,29.6417,-93.6667,0076,0.76,3.93,4.0000,11.0000
1981-09-05 13:00:00 UTC,2444853.041667,29.6417,-93.6667,0076,2.18,3.35,4.0000,33.0000
1981-09-05 13:30:00 UTC,2444853.062500,29.6417,-93.6667,0076,1.12,1.66,2.0000,34.0000
1981-09-05 14:00:00 UTC,2444853.083333,29.6417,-93.6667,0076,-1.03,1.71,2.0000,329.0000
1981-09-05 14:30:00 UTC,2444853.104167,29.6417,-93.6667,0076,-1.63,3.65,4.0000,336.0000
1981-09-05 15:00:00 UTC,2444853.125000,29.6417,-93.6667,0076,0.37,2.98,3.0000,7.0000
1981-09-05 15:30:00 UTC,2444853.145833,29.6417,-93.6667,0076,1.46,1.36,2.0000,47.0000
1981-09-05 16:00:00 UTC,2444853.166667,29.6417,-93.6667,0076,0.98,0.17,1.0000,80.0000
1981-09-05 16:30:00 UTC,2444853.187500,29.6417,-93.6667,0076,0.77,0.64,1.0000,50.0000
1981-09-05 17:00:00 UTC,2444853.208333,29.6417,-93.6667,0076,1.49,1.34,2.0000,48.0000
1981-09-05 17:30:00 UTC,2444853.229167,29.6417,-93.6667,0076,3.35,2.18,4.0000,57.0000
1981-09-05 18:00:00 UTC,2444853.250000,29.6417,-93.6667,0076,3.65,1.63,4.0000,66.0000
1981-09-05 18:30:00 UTC,2444853.270833,29.6417,-93.6667,0076,2.99,0.26,3.0000,85.0000
1981-09-05 19:00:00 UTC,2444853.291667,29.6417,-93.6667,0076,1.97,-0.35,2.0000,100.0000
1981-09-05 19:30:00 UTC,2444853.312500,29.6417,-93.6667,0076,2.00,0.14,2.0000,86.0000
1981-09-05 20:00:00 UTC,2444853.333333,29.6417,-93.6667,0076,2.85,0.93,3.0000,72.0000
1981-09-05 20:30:00 UTC,2444853.354167,29.6417,-93.6667,0076,1.55,1.26,2.0000,51.0000
1981-09-05 21:00:00 UTC,2444853.375000,29.6417,-93.6667,0076,0.10,2.00,2.0000,3.0000
1981-09-05 21:30:00 UTC,2444853.395833,29.6417,-93.6667,0076,-0.57,2.94,3.0000,349.0000
1981-09-05 22:00:00 UTC,2444853.416667,29.6417,-93.6667,0076,-0.21,2.99,3.0000,356.0000
1981-09-05 22:30:00 UTC,2444853.437500,29.6417,-93.6667,0076,0.21,2.99,3.0000,4.0000
1981-09-05 23:00:00 UTC,2444853.458333,29.6417,-93.6667,0076,0.19,0.98,1.0000,11.0000
1981-09-05 23:30:00 UTC,2444853.479167,29.6417,-93.6667,0076,0.00,0.00,0.0000,18.0000
1981-09-06 00:00:00 UTC,2444853.500000,29.6417,-93.6667,0076,0.00,0.00,0.0000,76.0000
1981-09-06 00:30:00 UTC,2444853.520833,29.6417,-93.6667,0076,-0.00,0.00,0.0000,278.0000
1981-09-06 01:00:00 UTC,2444853.541667,29.6417,-93.6667,0076,-0.00,0.00,0.0000,280.0000
1981-09-06 01:30:00 UTC,2444853.562500,29.6417,-93.6667,0076,-0.97,0.22,1.0000,283.0000
1981-09-06 02:00:00 UTC,2444853.583333,29.6417,-93.6667,0076,-0.00,0.00,0.0000,288.0000
1981-09-06 02:30:00 UTC,2444853.604167,29.6417,-93.6667,0076,-0.96,0.28,1.0000,286.0000
1981-09-06 03:00:00 UTC,2444853.625000,29.6417,-93.6667,0076,-2.96,0.47,3.0000,279.0000
1981-09-06 03:30:00 UTC,2444853.645833,29.6417,-93.6667,0076,-2.96,0.47,3.0000,279.0000
1981-09-06 04:00:00 UTC,2444853.666667,29.6417,-93.6667,0076,-1.91,0.58,2.0000,287.0000
1981-09-06 04:30:00 UTC,2444853.687500,29.6417,-93.6667,0076,-0.80,0.60,1.0000,307.0000
1981-09-06 05:00:00 UTC,2444853.708333,29.6417,-93.6667,0076,-0.00,0.00,0.0000,321.0000
1981-09-06 05:30:00 UTC,2444853.729167,29.6417,-93.6667,0076,-0.00,0.00,0.0000,321.0000
1981-09-06 06:00:00 UTC,2444853.750000,29.6417,-93.6667,0076,0.00,0.00,0.0000,23.0000
1981-09-06 06:30:00 UTC,2444853.770833,29.6417,-93.6667,0076,0.56,0.83,1.0000,34.0000
1981-09-06 07:00:00 UTC,2444853.791667,29.6417,-93.6667,0076,0.74,0.67,1.0000,48.0000
1981-09-06 07:30:00 UTC,2444853.812500,29.6417,-93.6667,0076,0.97,0.22,1.0000,77.0000
1981-09-06 08:00:00 UTC,2444853.833333,29.6417,-93.6667,0076,0.95,0.33,1.0000,71.0000
1981-09-06 08:30:00 UTC,2444853.854167,29.6417,-93.6667,0076,1.80,0.88,2.0000,64.0000
1981-09-06 09:00:00 UTC,2444853.875000,29.6417,-93.6667,0076,2.95,0.52,3.0000,80.0000
1981-09-06 09:30:00 UTC,2444853.895833,29.6417,-93.6667,0076,1.99,-0.21,2.0000,96.0000
1981-09-06 10:00:00 UTC,2444853.916667,29.6417,-93.6667,0076,0.95,-0.31,1.0000,108.0000
1981-09-06 10:30:00 UTC,2444853.937500,29.6417,-93.6667,0076,0.00,-0.00,0.0000,99.0000
1981-09-06 11:00:00 UTC,2444853.958333,29.6417,-93.6667,0076,0.00,0.00,0.0000,88.0000
1981-09-06 11:30:00 UTC,2444853.979167,29.6417,-93.6667,0076,0.00,-0.00,0.0000,133.0000
1981-09-06 12:00:00 UTC,2444854.000000,29.6417,-93.6667,0076,0.45,-0.89,1.0000,153.0000
1981-09-06 12:30:00 UTC,2444854.020833,29.6417,-93.6667,0076,0.98,-2.84,3.0000,161.0000
1981-09-06 13:00:00 UTC,2444854.041667,29.6417,-93.6667,0076,0.78,-4.94,5.0000,171.0000
1981-09-06 13:30:00 UTC,2444854.062500,29.6417,-93.6667,0076,0.24,-7.00,7.0000,178.0000
1981-09-06 14:00:00 UTC,2444854.083333,29.6417,-93.6667,0076,0.24,-7.00,7.0000,178.0000
1981-09-06 14:30:00 UTC,2444854.104167,29.6417,-93.6667,0076,0.56,-7.98,8.0000,176.0000
1981-09-06 15:00:00 UTC,2444854.125000,29.6417,-93.6667,0076,-0.16,-9.00,9.0000,181.0000
1981-09-06 15:30:00 UTC,2444854.145833,29.6417,-93.6667,0076,-1.22,-9.93,10.0000,187.0000
1981-09-06 16:00:00 UTC,2444854.166667,29.6417,-93.6667,0076,-1.56,-8.86,9.0000,190.0000
1981-09-06 16:30:00 UTC,2444854.187500,29.6417,-93.6667,0076,-1.80,-7.79,8.0000,193.0000
1981-09-06 17:00:00 UTC,2444854.208333,29.6417,-93.6667,0076,-2.34,-7.65,8.0000,197.0000
1981-09-06 17:30:00 UTC,2444854.229167,29.6417,-93.6667,0076,-2.93,-8.51,9.0000,199.0000
1981-09-06 18:00:00 UTC,2444854.250000,29.6417,-93.6667,0076,-2.93,-8.51,9.0000,199.0000
1981-09-06 18:30:00 UTC,2444854.270833,29.6417,-93.6667,0076,-3.08,-8.46,9.0000,200.0000
1981-09-06 19:00:00 UTC,2444854.291667,29.6417,-93.6667,0076,-2.74,-7.52,8.0000,200.0000
1981-09-06 19:30:00 UTC,2444854.312500,29.6417,-93.6667,0076,-2.51,-6.54,7.0000,201.0000
1981-09-06 20:00:00 UTC,2444854.333333,29.6417,-93.6667,0076,-2.62,-6.49,7.0000,202.0000
1981-09-06 20:30:00 UTC,2444854.354167,29.6417,-93.6667,0076,-3.25,-7.31,8.0000,204.0000
1981-09-06 21:00:00 UTC,2444854.375000,29.6417,-93.6667,0076,-2.96,-6.34,7.0000,205.0000
1981-09-06 21:30:00 UTC,2444854.395833,29.6417,-93.6667,0076,-2.51,-6.54,7.0000,201.0000
1981-09-06 22:00:00 UTC,2444854.416667,29.6417,-93.6667,0076,-1.95,-5.67,6.0000,199.0000
1981-09-06 22:30:00 UTC,2444854.437500,29.6417,-93.6667,0076,-2.44,-5.48,6.0000,204.0000
1981-09-06 23:00:00 UTC,2444854.458333,29.6417,-93.6667,0076,-3.09,-5.14,6.0000,211.0000
1981-09-06 23:30:00 UTC,2444854.479167,29.6417,-93.6667,0076,-3.28,-2.29,4.0000,235.0000
1981-09-07 00:00:00 UTC,2444854.500000,29.6417,-93.6667,0076,-2.93,2.73,4.0000,313.0000
1981-09-07 00:30:00 UTC,2444854.520833,29.6417,-93.6667,0076,-2.85,6.39,7.0000,336.0000
1981-09-07 01:00:00 UTC,2444854.541667,29.6417,-93.6667,0076,-2.87,7.47,8.0000,339.0000
1981-09-07 01:30:00 UTC,2444854.562500,29.6417,-93.6667,0076,-2.74,7.52,8.0000,340.0000
1981-09-07 02:00:00 UTC,2444854.583333,29.6417,-93.6667,0076,-2.48,8.65,9.0000,344.0000
1981-09-07 02:30:00 UTC,2444854.604167,29.6417,-93.6667,0076,-1.80,7.79,8.0000,347.0000
1981-09-07 03:00:00 UTC,2444854.625000,29.6417,-93.6667,0076,-1.25,5.87,6.0000,348.0000
1981-09-07 03:30:00 UTC,2444854.645833,29.6417,-93.6667,0076,-0.52,2.95,3.0000,350.0000
1981-09-07 04:00:00 UTC,2444854.666667,29.6417,-93.6667,0076,-0.17,0.98,1.0000,350.0000
1981-09-07 04:30:00 UTC,2444854.687500,29.6417,-93.6667,0076,0.36,0.93,1.0000,21.0000
1981-09-07 05:00:00 UTC,2444854.708333,29.6417,-93.6667,0076,1.51,1.31,2.0000,49.0000
1981-09-07 05:30:00 UTC,2444854.729167,29.6417,-93.6667,0076,2.95,0.52,3.0000,80.0000
1981-09-07 06:00:00 UTC,2444854.750000,29.6417,-93.6667,0076,3.99,-0.28,4.0000,94.0000
1981-09-07 06:30:00 UTC,2444854.770833,29.6417,-93.6667,0076,4.97,-0.52,5.0000,96.0000
1981-09-07 07:00:00 UTC,2444854.791667,29.6417,-93.6667,0076,5.99,-0.42,6.0000,94.0000
1981-09-07 07:30:00 UTC,2444854.812500,29.6417,-93.6667,0076,6.00,-0.10,6.0000,91.0000
1981-09-07 08:00:00 UTC,2444854.833333,29.6417,-93.6667,0076,7.00,0.00,7.0000,90.0000
1981-09-07 08:30:00 UTC,2444854.854167,29.6417,-93.6667,0076,7.00,0.00,7.0000,90.0000
1981-09-07 09:00:00 UTC,2444854.875000,29.6417,-93.6667,0076,7.00,-0.12,7.0000,91.0000
1981-09-07 09:30:00 UTC,2444854.895833,29.6417,-93.6667,0076,5.96,-0.73,6.0000,97.0000
1981-09-07 10:00:00 UTC,2444854.916667,29.6417,-93.6667,0076,5.64,-2.05,6.0000,110.0000
1981-09-07 10:30:00 UTC,2444854.937500,29.6417,-93.6667,0076,5.25,-2.91,6.0000,119.0000
1981-09-07 11:00:00 UTC,2444854.958333,29.6417,-93.6667,0076,5.87,-3.81,7.0000,123.0000
1981-09-07 11:30:00 UTC,2444854.979167,29.6417,-93.6667,0076,5.85,-5.46,8.0000,133.0000
1981-09-07 12:00:00 UTC,2444855.000000,29.6417,-93.6667,0076,4.93,-6.30,8.0000,142.0000
1981-09-07 12:30:00 UTC,2444855.020833,29.6417,-93.6667,0076,5.16,-7.37,9.0000,145.0000
1981-09-07 13:00:00 UTC,2444855.041667,29.6417,-93.6667,0076,4.24,-6.78,8.0000,148.0000
1981-09-07 13:30:00 UTC,2444855.062500,29.6417,-93.6667,0076,2.74,-6.44,7.0000,157.0000
1981-09-07 14:00:00 UTC,2444855.083333,29.6417,-93.6667,0076,0.70,-4.95,5.0000,172.0000
1981-09-07 14:30:00 UTC,2444855.104167,29.6417,-93.6667,0076,-0.76,-3.93,4.0000,191.0000
1981-09-07 15:00:00 UTC,2444855.125000,29.6417,-93.6667,0076,-1.93,-0.52,2.0000,255.0000
1981-09-07 15:30:00 UTC,2444855.145833,29.6417,-93.6667,0076,-3.71,1.50,4.0000,292.0000
1981-09-07 16:00:00 UTC,2444855.166667,29.6417,-93.6667,0076,-3.60,1.75,4.0000,296.0000
1981-09-07 16:30:00 UTC,2444855.187500,29.6417,-93.6667,0076,-3.56,1.82,4.0000,297.0000
1981-09-07 17:00:00 UTC,2444855.208333,29.6417,-93.6667,0076,-3.39,2.12,4.0000,302.0000
1981-09-07 17:30:00 UTC,2444855.229167,29.6417,-93.6667,0076,-3.83,3.21,5.0000,310.0000
1981-09-07 18:00:00 UTC,2444855.250000,29.6417,-93.6667,0076,-3.60,3.47,5.0000,314.0000
1981-09-07 18:30:00 UTC,2444855.270833,29.6417,-93.6667,0076,-2.83,2.83,4.0000,315.0000
1981-09-07 19:00:00 UTC,2444855.291667,29.6417,-93.6667,0076,-2.19,2.05,3.0000,313.0000
1981-09-07 19:30:00 UTC,2444855.312500,29.6417,-93.6667,0076,-2.19,2.05,3.0000,313.0000
1981-09-07 20:00:00 UTC,2444855.333333,29.6417,-93.6667,0076,-1.53,1.29,2.0000,310.0000
1981-09-07 20:30:00 UTC,2444855.354167,29.6417,-93.6667,0076,-1.31,1.51,2.0000,319.0000
1981-09-07 21:00:00 UTC,2444855.375000,29.6417,-93.6667,0076,-1.22,2.74,3.0000,336.0000
1981-09-07 21:30:00 UTC,2444855.395833,29.6417,-93.6667,0076,-1.03,2.82,3.0000,340.0000
1981-09-07 22:00:00 UTC,2444855.416667,29.6417,-93.6667,0076,-1.94,3.50,4.0000,331.0000
1981-09-07 22:30:00 UTC,2444855.437500,29.6417,-93.6667,0076,-2.72,4.19,5.0000,327.0000
1981-09-07 23:00:00 UTC,2444855.458333,29.6417,-93.6667,0076,-2.72,4.19,5.0000,327.0000
1981-09-07 23:30:00 UTC,2444855.479167,29.6417,-93.6667,0076,-1.82,3.56,4.0000,333.0000
1981-09-08 00:00:00 UTC,2444855.500000,29.6417,-93.6667,0076,-1.12,2.78,3.0000,338.0000
1981-09-08 00:30:00 UTC,2444855.520833,29.6417,-93.6667,0076,-1.18,1.62,2.0000,324.0000
1981-09-08 01:00:00 UTC,2444855.541667,29.6417,-93.6667,0076,-1.96,0.38,2.0000,281.0000
1981-09-08 01:30:00 UTC,2444855.562500,29.6417,-93.6667,0076,-3.99,-0.21,4.0000,267.0000
1981-09-08 02:00:00 UTC,2444855.583333,29.6417,-93.6667,0076,-4.94,-0.78,5.0000,261.0000
1981-09-08 02:30:00 UTC,2444855.604167,29.6417,-93.6667,0076,-4.95,-0.70,5.0000,262.0000
1981-09-08 03:00:00 UTC,2444855.625000,29.6417,-93.6667,0076,-4.99,-0.35,5.0000,266.0000
1981-09-08 03:30:00 UTC,2444855.645833,29.6417,-93.6667,0076,-4.99,-0.35,5.0000,266.0000
1981-09-08 04:00:00 UTC,2444855.666667,29.6417,-93.6667,0076,-4.95,-0.70,5.0000,262.0000
1981-09-08 04:30:00 UTC,2444855.687500,29.6417,-93.6667,0076,-5.97,-0.63,6.0000,264.0000
1981-09-08 05:00:00 UTC,2444855.708333,29.6417,-93.6667,0076,-6.00,-0.00,6.0000,270.0000
1981-09-08 05:30:00 UTC,2444855.729167,29.6417,-93.6667,0076,-4.92,0.87,5.0000,280.0000
1981-09-08 06:00:00 UTC,2444855.750000,29.6417,-93.6667,0076,-5.60,2.15,6.0000,291.0000
1981-09-08 06:30:00 UTC,2444855.770833,29.6417,-93.6667,0076,-5.52,2.34,6.0000,293.0000
1981-09-08 07:00:00 UTC,2444855.791667,29.6417,-93.6667,0076,-4.70,1.71,5.0000,290.0000
1981-09-08 07:30:00 UTC,2444855.812500,29.6417,-93.6667,0076,-4.81,1.38,5.0000,286.0000
1981-09-08 08:00:00 UTC,2444855.833333,29.6417,-93.6667,0076,-4.78,1.46,5.0000,287.0000
1981-09-08 08:30:00 UTC,2444855.854167,29.6417,-93.6667,0076,-4.64,1.87,5.0000,292.0000
1981-09-08 09:00:00 UTC,2444855.875000,29.6417,-93.6667,0076,-4.41,2.35,5.0000,298.0000
1981-09-08 09:30:00 UTC,2444855.895833,29.6417,-93.6667,0076,-4.33,2.50,5.0000,300.0000
1981-09-08 10:00:00 UTC,2444855.916667,29.6417,-93.6667,0076,-4.29,2.58,5.0000,301.0000
1981-09-08 10:30:00 UTC,2444855.937500,29.6417,-93.6667,0076,-4.85,3.53,6.0000,306.0000
1981-09-08 11:00:00 UTC,2444855.958333,29.6417,-93.6667,0076,-3.47,3.60,5.0000,316.0000
1981-09-08 11:30:00 UTC,2444855.979167,29.6417,-93.6667,0076,-2.50,4.33,5.0000,330.0000
1981-09-08 12:00:00 UTC,2444856.000000,29.6417,-93.6667,0076,-1.29,4.83,5.0000,345.0000
1981-09-08 12:30:00 UTC,2444856.020833,29.6417,-93.6667,0076,0.09,5.00,5.0000,1.0000
1981-09-08 13:00:00 UTC,2444856.041667,29.6417,-93.6667,0076,0.87,4.92,5.0000,10.0000
1981-09-08 13:30:00 UTC,2444856.062500,29.6417,-93.6667,0076,0.26,4.99,5.0000,3.0000
1981-09-08 14:00:00 UTC,2444856.083333,29.6417,-93.6667,0076,-0.70,4.95,5.0000,352.0000
1981-09-08 14:30:00 UTC,2444856.104167,29.6417,-93.6667,0076,-1.38,4.81,5.0000,344.0000
1981-09-08 15:00:00 UTC,2444856.125000,29.6417,-93.6667,0076,-2.25,5.56,6.0000,338.0000
1981-09-08 15:30:00 UTC,2444856.145833,29.6417,-93.6667,0076,-2.54,5.44,6.0000,335.0000
1981-09-08 16:00:00 UTC,2444856.166667,29.6417,-93.6667,0076,-1.87,4.64,5.0000,338.0000
1981-09-08 16:30:00 UTC,2444856.187500,29.6417,-93.6667,0076,-0.90,3.90,4.0000,347.0000
1981-09-08 17:00:00 UTC,2444856.208333,29.6417,-93.6667,0076,-0.57,2.94,3.0000,349.0000
1981-09-08 17:30:00 UTC,2444856.229167,29.6417,-93.6667,0076,-0.45,1.95,2.0000,347.0000
1981-09-08 18:00:00 UTC,2444856.250000,29.6417,-93.6667,0076,-0.07,1.00,1.0000,356.0000
1981-09-08 18:30:00 UTC,2444856.270833,29.6417,-93.6667,0076,0.21,1.99,2.0000,6.0000
1981-09-08 19:00:00 UTC,2444856.291667,29.6417,-93.6667,0076,0.38,1.96,2.0000,11.0000
1981-09-08 19:30:00 UTC,2444856.312500,29.6417,-93.6667,0076,0.47,0.88,1.0000,28.0000
1981-09-08 20:00:00 UTC,2444856.333333,29.6417,-93.6667,0076,0.62,0.79,1.0000,38.0000
1981-09-08 20:30:00 UTC,2444856.354167,29.6417,-93.6667,0076,1.46,1.36,2.0000,47.0000
1981-09-08 21:00:00 UTC,2444856.375000,29.6417,-93.6667,0076,1.84,0.78,2.0000,67.0000
1981-09-08 21:30:00 UTC,2444856.395833,29.6417,-93.6667,0076,1.90,0.62,2.0000,72.0000
1981-09-08 22:00:00 UTC,2444856.416667,29.6417,-93.6667,0076,0.93,0.36,1.0000,69.0000
1981-09-08 22:30:00 UTC,2444856.437500,29.6417,-93.6667,0076,0.00,0.00,0.0000,66.0000
1981-09-08 23:00:00 UTC,2444856.458333,29.6417,-93.6667,0076,-0.00,0.00,0.0000,304.0000
1981-09-08 23:30:00 UTC,2444856.479167,29.6417,-93.6667,0076,-0.36,0.93,1.0000,339.0000
1981-09-09 00:00:00 UTC,2444856.500000,29.6417,-93.6667,0076,-0.78,2.90,3.0000,345.0000
1981-09-09 00:30:00 UTC,2444856.520833,29.6417,-93.6667,0076,-0.69,3.94,4.0000,350.0000
1981-09-09 01:00:00 UTC,2444856.541667,29.6417,-93.6667,0076,-0.63,3.95,4.0000,351.0000
1981-09-09 01:30:00 UTC,2444856.562500,29.6417,-93.6667,0076,-1.12,4.87,5.0000,347.0000
1981-09-09 02:00:00 UTC,2444856.583333,29.6417,-93.6667,0076,-1.65,5.77,6.0000,344.0000
1981-09-09 02:30:00 UTC,2444856.604167,29.6417,-93.6667,0076,-1.55,5.80,6.0000,345.0000
1981-09-09 03:00:00 UTC,2444856.625000,29.6417,-93.6667,0076,-1.25,5.87,6.0000,348.0000
1981-09-09 03:30:00 UTC,2444856.645833,29.6417,-93.6667,0076,-1.45,5.82,6.0000,346.0000
1981-09-09 04:00:00 UTC,2444856.666667,29.6417,-93.6667,0076,-1.95,5.67,6.0000,341.0000
1981-09-09 04:30:00 UTC,2444856.687500,29.6417,-93.6667,0076,-2.74,6.44,7.0000,337.0000
1981-09-09 05:00:00 UTC,2444856.708333,29.6417,-93.6667,0076,-2.74,6.44,7.0000,337.0000
1981-09-09 05:30:00 UTC,2444856.729167,29.6417,-93.6667,0076,-1.75,5.74,6.0000,343.0000
1981-09-09 06:00:00 UTC,2444856.750000,29.6417,-93.6667,0076,-0.52,5.98,6.0000,355.0000
1981-09-09 06:30:00 UTC,2444856.770833,29.6417,-93.6667,0076,0.84,5.94,6.0000,8.0000
1981-09-09 07:00:00 UTC,2444856.791667,29.6417,-93.6667,0076,1.45,5.82,6.0000,14.0000
1981-09-09 07:30:00 UTC,2444856.812500,29.6417,-93.6667,0076,2.15,5.60,6.0000,21.0000
1981-09-09 08:00:00 UTC,2444856.833333,29.6417,-93.6667,0076,2.91,5.25,6.0000,29.0000
1981-09-09 08:30:00 UTC,2444856.854167,29.6417,-93.6667,0076,3.01,3.99,5.0000,37.0000
1981-09-09 09:00:00 UTC,2444856.875000,29.6417,-93.6667,0076,3.72,3.35,5.0000,48.0000
1981-09-09 09:30:00 UTC,2444856.895833,29.6417,-93.6667,0076,5.35,2.72,6.0000,63.0000
1981-09-09 10:00:00 UTC,2444856.916667,29.6417,-93.6667,0076,6.82,1.57,7.0000,77.0000
1981-09-09 10:30:00 UTC,2444856.937500,29.6417,-93.6667,0076,7.00,0.00,7.0000,90.0000
1981-09-09 11:00:00 UTC,2444856.958333,29.6417,-93.6667,0076,6.85,-1.46,7.0000,102.0000
1981-09-09 11:30:00 UTC,2444856.979167,29.6417,-93.6667,0076,5.35,-2.72,6.0000,117.0000
1981-09-09 12:00:00 UTC,2444857.000000,29.6417,-93.6667,0076,4.32,-4.17,6.0000,134.0000
1981-09-09 12:30:00 UTC,2444857.020833,29.6417,-93.6667,0076,3.69,-4.73,6.0000,142.0000